TimeEST,TemperatureF,Dew PointF,Humidity,Sea Level PressureIn,VisibilityMPH,Wind Direction,Wind SpeedMPH,Gust SpeedMPH,PrecipitationIn,Events,Conditions,WindDirDegrees,DateUTC
12:53 AM,19.9,12.9,74,30.17,10.0,Calm,Calm,-,N/A,,Clear,0,2012-12-28 05:53:00
1:53 AM,19.0,12.9,77,30.16,10.0,Calm,Calm,-,N/A,,Clear,0,2012-12-28 06:53:00
2:53 AM,16.0,12.9,88,30.18,10.0,WSW,4.6,-,N/A,,Clear,250,2012-12-28 07:53:00
3:53 AM,17.1,12.9,84,30.18,10.0,WNW,3.5,-,N/A,,Clear,290,2012-12-28 08:53:00
4:53 AM,16.0,12.0,84,30.19,10.0,West,4.6,-,N/A,,Clear,270,2012-12-28 09:53:00
5:53 AM,15.1,12.0,88,30.17,10.0,NW,3.5,-,N/A,,Clear,310,2012-12-28 10:53:00
6:53 AM,16.0,12.0,84,30.18,10.0,NNW,3.5,-,N/A,,Mostly Cloudy,330,2012-12-28 11:53:00
7:53 AM,19.0,14.0,81,30.18,10.0,Calm,Calm,-,N/A,,Overcast,0,2012-12-28 12:53:00
8:27 AM,17.6,12.2,79,30.13,10.0,Calm,Calm,-,N/A,,Scattered Clouds,0,2012-12-28 13:27:00
8:53 AM,17.1,12.9,84,30.17,10.0,Calm,Calm,-,N/A,,Partly Cloudy,0,2012-12-28 13:53:00
9:51 AM,19.4,15.8,86,30.14,10.0,Calm,Calm,-,N/A,,Overcast,0,2012-12-28 14:51:00
9:53 AM,19.0,15.1,85,30.18,10.0,Calm,Calm,-,N/A,,Overcast,0,2012-12-28 14:53:00
10:53 AM,21.9,17.1,82,30.20,10.0,SW,6.9,-,N/A,,Overcast,220,2012-12-28 15:53:00
11:53 AM,23.0,18.0,81,30.18,10.0,SSW,5.8,-,N/A,,Overcast,200,2012-12-28 16:53:00
12:53 PM,26.1,18.0,71,30.14,10.0,SSW,5.8,-,N/A,,Overcast,210,2012-12-28 17:53:00
1:36 PM,28.4,19.4,69,30.08,10.0,Calm,Calm,-,N/A,,Scattered Clouds,0,2012-12-28 18:36:00
1:53 PM,28.0,18.0,66,30.09,10.0,SE,3.5,-,N/A,,Partly Cloudy,130,2012-12-28 18:53:00
2:53 PM,28.0,18.0,66,30.08,10.0,South,4.6,-,N/A,,Overcast,170,2012-12-28 19:53:00
3:53 PM,28.0,19.0,69,30.07,10.0,South,4.6,-,N/A,,Overcast,170,2012-12-28 20:53:00
4:53 PM,28.0,19.0,69,30.07,10.0,SSE,3.5,-,N/A,,Overcast,160,2012-12-28 21:53:00
5:53 PM,28.0,18.0,66,30.07,10.0,South,3.5,-,N/A,,Overcast,170,2012-12-28 22:53:00
6:53 PM,26.1,18.0,71,30.08,10.0,Calm,Calm,-,N/A,,Overcast,0,2012-12-28 23:53:00
7:53 PM,27.0,19.9,75,30.06,10.0,ENE,4.6,-,N/A,,Overcast,60,2012-12-29 00:53:00
8:53 PM,26.1,19.9,78,30.05,10.0,Calm,Calm,-,N/A,,Overcast,0,2012-12-29 01:53:00
9:53 PM,26.1,21.0,81,30.04,10.0,ENE,3.5,-,N/A,,Overcast,60,2012-12-29 02:53:00
10:53 PM,26.1,21.0,81,30.02,10.0,East,5.8,-,0.00,,Overcast,100,2012-12-29 03:53:00
11:53 PM,25.0,19.9,81,30.00,10.0,East,5.8,-,N/A,,Overcast,80,2012-12-29 04:53:00